Wilmington, OH

3:30 PM EDT on April 30, 2017 (GMT -0400)
Airborne

Weather History for KILN - June, 2013

Change the Weather History Date:

Friday, June 28, 2013

  Actual Average (KFFO) Record (KFFO)
Temperature  
Mean Temperature 74 °F -  
Max Temperature 84 °F 81 °F 103 °F (2012)
Min Temperature 62 °F 60 °F 55 °F (2003)
Cooling Degree Days 8    
Growing Degree Days 24 (Base 50)    
Moisture  
Dew Point 64 °F    
Average Humidity 74    
Maximum Humidity 93    
Minimum Humidity 43    
Precipitation  
Precipitation 0.00 in - - ()
Sea Level Pressure  
Sea Level Pressure 29.62 in    
Wind  
Wind Speed 9 mph (West)    
Max Wind Speed 20 mph    
Max Gust Speed 26 mph    
Visibility 10 miles    
Events Rain , Thunderstorm    
Averages and records for this station are not official NWS values.
T = Trace of Precipitation, MM = Missing Value Source: NWS Daily Summary

Daily Weather History Graph

Daily Weather History Graph

Search for Another Location

Airport or City:

Trip Planner

Search our weather history database for the weather conditions in past years. The results will help you decide how hot, cold, wet, or windy it might be!

Date:

Astronomy

Jun. 28, 2013 Rise Set
Actual Time 6:10 AM EDT 9:06 PM EDT
Civil Twilight 5:38 AM EDT 9:38 PM EDT
Nautical Twilight 4:57 AM EDT 10:19 PM EDT
Astronomical Twilight 4:10 AM EDT 11:06 PM EDT
Moon 12:04 AM EDT (6/28) 12:15 PM EDT (6/28)
Length of Visible Light 16h 00m
Length of Day
14h 55m
Waning Gibbous, 66% of the Moon is Illuminated
Jun 28
Waning Gibbous
Jun 30
Last Quarter
Jul 8
New
Jul 15
First Quarter
Jul 22
Full

Hourly Weather History & Observations

Time (EDT) Temp. Heat Index Dew Point Humidity Pressure Visibility Wind Dir Wind Speed Gust Speed Precip Events Conditions
12:54 AM 71.1 °F - 66.9 °F 87% 29.68 in 10.0 mi SW 5.8 mph - N/A   Clear
1:08 AM 71.6 °F - 68.0 °F 88% 29.71 in 10.0 mi SSW 5.8 mph - N/A Thunderstorm Clear
1:54 AM 71.1 °F - 64.9 °F 81% 29.68 in 10.0 mi Calm Calm - N/A Thunderstorm Overcast
2:54 AM 72.0 °F - 66.9 °F 84% 29.65 in 10.0 mi WSW 5.8 mph - N/A   Clear
3:54 AM 71.1 °F - 68.0 °F 90% 29.65 in 10.0 mi WSW 5.8 mph - N/A   Clear
4:54 AM 71.1 °F - 66.9 °F 87% 29.62 in 10.0 mi WSW 8.1 mph - N/A   Clear
5:54 AM 71.1 °F - 66.9 °F 87% 29.63 in 10.0 mi West 10.4 mph - N/A   Clear
6:54 AM 71.1 °F - 66.9 °F 87% 29.62 in 10.0 mi West 9.2 mph - N/A   Clear
7:54 AM 73.0 °F - 66.9 °F 81% 29.63 in 10.0 mi West 9.2 mph - N/A   Clear
8:54 AM 73.9 °F - 66.0 °F 76% 29.64 in 10.0 mi West 12.7 mph - N/A   Clear
9:54 AM 77.0 °F - 66.0 °F 69% 29.63 in 10.0 mi West 16.1 mph 20.7 mph N/A   Clear
10:54 AM 80.1 °F 82.1 °F 66.0 °F 62% 29.62 in 10.0 mi West 12.7 mph - N/A   Clear
11:54 AM 80.1 °F 82.1 °F 66.0 °F 62% 29.62 in 10.0 mi West 15.0 mph 20.7 mph N/A   Scattered Clouds
12:54 PM 80.1 °F 81.7 °F 64.0 °F 58% 29.61 in 10.0 mi West 13.8 mph 26.5 mph N/A   Mostly Cloudy
1:54 PM 84.0 °F 84.0 °F 60.1 °F 44% 29.59 in 10.0 mi West 17.3 mph 26.5 mph N/A   Partly Cloudy
2:54 PM 82.9 °F 83.2 °F 60.1 °F 46% 29.58 in 10.0 mi West 16.1 mph 23.0 mph N/A   Mostly Cloudy
3:54 PM 82.0 °F 82.1 °F 59.0 °F 45% 29.57 in 10.0 mi WNW 17.3 mph 24.2 mph N/A   Scattered Clouds
4:54 PM 84.0 °F 83.8 °F 59.0 °F 43% 29.56 in 10.0 mi WNW 17.3 mph 25.3 mph N/A   Partly Cloudy
5:54 PM 70.0 °F - 57.0 °F 63% 29.61 in 10.0 mi NNW 16.1 mph 24.2 mph N/A   Mostly Cloudy
6:54 PM 66.0 °F - 61.0 °F 84% 29.62 in 10.0 mi WNW 19.6 mph 24.2 mph 0.00 in Rain Light Rain
7:54 PM 66.9 °F - 60.1 °F 79% 29.61 in 10.0 mi West 6.9 mph - 0.00 in   Mostly Cloudy
8:54 PM 66.9 °F - 61.0 °F 81% 29.62 in 10.0 mi WSW 6.9 mph - N/A   Clear
9:54 PM 66.9 °F - 61.0 °F 81% 29.60 in 10.0 mi West 8.1 mph - 0.00 in   Scattered Clouds
10:54 PM 63.0 °F - 61.0 °F 93% 29.61 in 10.0 mi Calm Calm - N/A   Clear
11:54 PM 62.1 °F - 60.1 °F 93% 29.60 in 10.0 mi SW 4.6 mph - N/A   Clear